Powrót do katalogu

DELTA 1 DEB

AktywnyPO
NORAD 21452·DEBRIS·🇺🇸 United States

Wystrzelony Jun 12, 1975 z Vandenberg Space Force Base

Loading…

Następne Przeloty (najbliższe 24 godziny)

TLE

ŚwieżeSource: Space-Track

Epoka: Sep 14, 2026, 10:43 UTC

1 21452U 75052EL  26257.44694769  .00001947  00000-0  82755-2 0  9994
2 21452  99.7488 124.8484 0580284  88.8236  31.4650 12.39714095585877

Śledź DELTA 1 DEB w czasie rzeczywistym z AllMySat

Download on the App Store